When you browse on this site, cookies collect data to enhance your experience and personalize the content and advertising you see.
Visit our Privacy Policy to learn more. By continuing to use the site, you agree to this use of cookies and data.
  • In Czech Republic
  • List of Countries
  • For 7 days
  • Water Temperature
  • Weather Map
  • Weather Widgets
  • user-avatar
    Login

    Hourly Weather Agustin Codazzi

    Today, 29 February, Saturday

    Time Temperature Precipitation Wind Pressure Humidity
    00:00 +27°C° 0 mm 2 mps 741 mmHg 62%
    01:00 +26°C° 0 mm 2 mps 741 mmHg 64%
    02:00 +26°C° 0 mm 2 mps 741 mmHg 63%
    03:00 +26°C° 0 mm 2 mps 741 mmHg 63%
    04:00 +26°C° 0 mm 2 mps 740 mmHg 62%
    05:00 +26°C° 0 mm 2 mps 741 mmHg 60%
    06:00 +26°C° 0 mm 2 mps 742 mmHg 58%
    07:00 +27°C° 0 mm 2 mps 742 mmHg 56%
    08:00 +29°C° 0 mm 2 mps 743 mmHg 49%
    09:00 +32°C° 0 mm 2 mps 743 mmHg 42%
    10:00 +36°C° 0 mm 2 mps 743 mmHg 35%
    11:00 +37°C° 0 mm 2 mps 743 mmHg 34%
    12:00 +38°C° 0 mm 3 mps 742 mmHg 33%
    13:00 +39°C° 0 mm 3 mps 741 mmHg 31%
    14:00 +38°C° 0 mm 3 mps 740 mmHg 33%
    15:00 +38°C° 0 mm 3 mps 740 mmHg 34%
    16:00 +37°C° 0 mm 3 mps 739 mmHg 36%
    17:00 +35°C° 0 mm 3 mps 739 mmHg 40%
    18:00 +33°C° 0 mm 3 mps 740 mmHg 44%
    19:00 +30°C° 0 mm 3 mps 740 mmHg 48%
    20:00 +29°C° 0 mm 3 mps 740 mmHg 50%
    21:00 +29°C° 0 mm 3 mps 741 mmHg 53%
    22:00 +28°C° 0 mm 3 mps 741 mmHg 56%
    23:00 +27°C° 0 mm 3 mps 741 mmHg 56%

    Tomorrow, 1 March, Sunday

    Time Temperature Precipitation Wind Pressure Humidity
    00:00 +27°C° 0 mm 3 mps 740 mmHg 57%
    01:00 +26°C° 0 mm 2 mps 740 mmHg 58%
    02:00 +26°C° 0 mm 2 mps 740 mmHg 59%
    03:00 +26°C° 0 mm 2 mps 740 mmHg 61%
    04:00 +25°C° 0 mm 2 mps 740 mmHg 62%
    05:00 +26°C° 0 mm 2 mps 740 mmHg 61%
    06:00 +26°C° 0 mm 2 mps 741 mmHg 61%
    07:00 +27°C° 0 mm 2 mps 741 mmHg 60%
    08:00 +29°C° 0 mm 2 mps 742 mmHg 53%
    09:00 +32°C° 0 mm 2 mps 742 mmHg 46%
    10:00 +36°C° 0 mm 2 mps 742 mmHg 39%
    11:00 +37°C° 0 mm 2 mps 742 mmHg 37%
    12:00 +38°C° 0 mm 3 mps 741 mmHg 36%
    13:00 +39°C° 0 mm 3 mps 740 mmHg 34%
    14:00 +38°C° 0.1 mm 3 mps 739 mmHg 38%
    15:00 +38°C° 0.1 mm 3 mps 739 mmHg 42%
    16:00 +37°C° 0.1 mm 4 mps 738 mmHg 46%
    17:00 +35°C° 0 mm 4 mps 738 mmHg 51%
    18:00 +33°C° 0 mm 3 mps 738 mmHg 56%
    19:00 +30°C° 0 mm 3 mps 739 mmHg 61%
    20:00 +30°C° 0 mm 3 mps 739 mmHg 62%
    21:00 +29°C° 0 mm 3 mps 740 mmHg 63%
    22:00 +29°C° 0 mm 3 mps 740 mmHg 64%
    23:00 +28°C° 0 mm 3 mps 740 mmHg 65%

    Day after tomorrow, 2 March, Monday

    Time Temperature Precipitation Wind Pressure Humidity
    00:00 +28°C° 0 mm 3 mps 740 mmHg 66%
    01:00 +27°C° 0 mm 2 mps 740 mmHg 68%
    02:00 +27°C° 0 mm 2 mps 739 mmHg 68%
    03:00 +26°C° 0 mm 2 mps 739 mmHg 68%
    04:00 +26°C° 0 mm 2 mps 739 mmHg 69%
    05:00 +26°C° 0 mm 2 mps 739 mmHg 66%
    06:00 +27°C° 0 mm 2 mps 740 mmHg 64%
    07:00 +27°C° 0 mm 2 mps 740 mmHg 62%
    08:00 +30°C° 0 mm 2 mps 741 mmHg 54%
    09:00 +34°C° 0 mm 2 mps 741 mmHg 46%
    10:00 +36°C° 0 mm 2 mps 741 mmHg 38%
    11:00 +37°C° 0 mm 2 mps 740 mmHg 38%
    12:00 +38°C° 0 mm 3 mps 740 mmHg 37%
    13:00 +39°C° 0 mm 3 mps 739 mmHg 36%
    14:00 +38°C° 0 mm 3 mps 738 mmHg 39%
    15:00 +38°C° 0 mm 3 mps 738 mmHg 42%
    16:00 +37°C° 0 mm 4 mps 737 mmHg 44%
    17:00 +35°C° 0 mm 3 mps 737 mmHg 49%
    18:00 +33°C° 0 mm 3 mps 737 mmHg 53%
    19:00 +31°C° 0 mm 3 mps 738 mmHg 57%
    20:00 +30°C° 0 mm 3 mps 738 mmHg 59%
    21:00 +29°C° 0 mm 3 mps 739 mmHg 60%
    22:00 +28°C° 0 mm 3 mps 739 mmHg 62%
    23:00 +28°C° 0 mm 3 mps 739 mmHg 62%

    3 March, Tuesday

    Time Temperature Precipitation Wind Pressure Humidity
    00:00 +27°C° 0 mm 3 mps 739 mmHg 63%
    01:00 +27°C° 0 mm 3 mps 739 mmHg 63%
    02:00 +27°C° 0 mm 3 mps 739 mmHg 64%
    03:00 +26°C° 0 mm 3 mps 738 mmHg 64%
    04:00 +26°C° 0 mm 3 mps 738 mmHg 64%
    05:00 +27°C° 0 mm 3 mps 739 mmHg 63%
    06:00 +27°C° 0 mm 3 mps 739 mmHg 61%
    07:00 +27°C° 0 mm 3 mps 740 mmHg 59%
    08:00 +30°C° 0 mm 3 mps 740 mmHg 52%
    09:00 +34°C° 0 mm 2 mps 740 mmHg 44%
    10:00 +37°C° 0 mm 2 mps 741 mmHg 36%
    11:00 +38°C° 0 mm 2 mps 740 mmHg 34%
    12:00 +40°C° 0 mm 2 mps 739 mmHg 31%
    13:00 +42°C° 0 mm 3 mps 738 mmHg 29%
    14:00 +40°C° 0 mm 3 mps 738 mmHg 32%
    15:00 +39°C° 0 mm 3 mps 737 mmHg 35%
    16:00 +39°C° 0 mm 3 mps 737 mmHg 37%
    17:00 +37°C° 0 mm 3 mps 737 mmHg 43%
    18:00 +35°C° 0 mm 3 mps 737 mmHg 48%
    19:00 +33°C° 0 mm 3 mps 738 mmHg 54%
    20:00 +31°C° 0 mm 3 mps 738 mmHg 56%
    21:00 +30°C° 0 mm 3 mps 739 mmHg 59%
    22:00 +29°C° 0 mm 3 mps 739 mmHg 61%
    23:00 +28°C° 0 mm 3 mps 739 mmHg 61%

    4 March, Wednesday

    Time Temperature Precipitation Wind Pressure Humidity
    00:00 +28°C° 0 mm 3 mps 739 mmHg 60%
    01:00 +27°C° 0 mm 3 mps 739 mmHg 60%
    02:00 +27°C° 0 mm 3 mps 739 mmHg 60%
    03:00 +26°C° 0 mm 2 mps 739 mmHg 60%
    04:00 +26°C° 0 mm 2 mps 739 mmHg 60%
    05:00 +26°C° 0 mm 2 mps 740 mmHg 59%
    06:00 +27°C° 0 mm 2 mps 740 mmHg 57%
    07:00 +27°C° 0 mm 2 mps 741 mmHg 56%
    08:00 +30°C° 0 mm 2 mps 741 mmHg 49%
    09:00 +34°C° 0 mm 2 mps 742 mmHg 42%
    10:00 +37°C° 0 mm 2 mps 742 mmHg 35%
    11:00 +38°C° 0 mm 2 mps 741 mmHg 32%
    12:00 +40°C° 0 mm 2 mps 740 mmHg 30%
    13:00 +41°C° 0 mm 2 mps 739 mmHg 27%
    14:00 +41°C° 0 mm 2 mps 739 mmHg 29%
    15:00 +40°C° 0 mm 3 mps 738 mmHg 31%
    16:00 +39°C° 0 mm 3 mps 738 mmHg 33%
    17:00 +37°C° 0 mm 3 mps 738 mmHg 40%
    18:00 +35°C° 0 mm 3 mps 738 mmHg 47%
    19:00 +31°C° 0 mm 3 mps 739 mmHg 53%
    20:00 +30°C° 0 mm 3 mps 739 mmHg 56%
    21:00 +29°C° 0 mm 3 mps 740 mmHg 58%
    22:00 +29°C° 0 mm 3 mps 740 mmHg 61%
    23:00 +28°C° 0 mm 3 mps 740 mmHg 61%

    5 March, Thursday

    Time Temperature Precipitation Wind Pressure Humidity
    00:00 +27°C° 0 mm 3 mps 740 mmHg 61%
    01:00 +27°C° 0 mm 2 mps 740 mmHg 62%
    02:00 +26°C° 0 mm 2 mps 740 mmHg 60%
    03:00 +26°C° 0 mm 2 mps 740 mmHg 59%
    04:00 +26°C° 0 mm 2 mps 740 mmHg 58%
    05:00 +26°C° 0 mm 2 mps 740 mmHg 55%
    06:00 +27°C° 0 mm 2 mps 741 mmHg 52%
    07:00 +27°C° 0 mm 2 mps 741 mmHg 49%
    08:00 +30°C° 0 mm 2 mps 742 mmHg 43%
    09:00 +34°C° 0 mm 2 mps 742 mmHg 37%
    10:00 +37°C° 0 mm 2 mps 742 mmHg 31%
    11:00 +39°C° 0 mm 2 mps 741 mmHg 29%
    12:00 +40°C° 0 mm 2 mps 741 mmHg 27%
    13:00 +41°C° 0 mm 2 mps 740 mmHg 25%
    14:00 +42°C° 0 mm 3 mps 739 mmHg 29%
    15:00 +40°C° 0 mm 3 mps 738 mmHg 32%
    16:00 +39°C° 0 mm 3 mps 738 mmHg 35%
    17:00 +37°C° 0 mm 3 mps 738 mmHg 41%
    18:00 +35°C° 0 mm 3 mps 738 mmHg 47%
    19:00 +33°C° 0 mm 3 mps 739 mmHg 53%
    20:00 +31°C° 0 mm 3 mps 739 mmHg 56%
    21:00 +30°C° 0 mm 3 mps 740 mmHg 59%
    22:00 +29°C° 0 mm 3 mps 740 mmHg 63%
    23:00 +28°C° 0 mm 3 mps 740 mmHg 65%
    Show more